Header for Extended Forecast Station List Page

Search by: ID | Name | Date | Parm | Value | Avg | % Avg
Sort by: ID | Name | Date | Parm | Value | Avg | % Avg

Enter search or view all records.

Click on id for station plot
#IDNameDateParmValueAvg% Avg
0HWRI1BIG LOST-AT HOWELL RANCH NEAR CHILLY01-25-2021DISCHARGE (KAF)274658
1MACI1BIG LOST-MACKAY RESERVOIR NEAR MACKAY01-25-2021INFLOW (KAF)313881
2HALI1BIG WOOD-AT HAILEY01-25-2021DISCHARGE (KAF)539855
3MAGI1BIG WOOD-MAGIC DAM01-25-2021INFLOW (KAF)6715344
4BITM8BITTERROOT-NEAR MISSOULA01-25-2021DISCHARGE (KAF)48552393
5BONM8BLACKFOOT-NEAR BONNER01-25-2021DISCHARGE (KAF)36738396
6BIGI1BOISE-AT GLENWOOD BRIDGE01-25-2021DISCHARGE (KAF)317249127
7LUCI1BOISE-LUCKY PEAK DAM01-25-2021INFLOW (KAF)776MM
8PARI1BOISE-NEAR PARMA01-25-2021DISCHARGE (KAF)397360110
9HOTI1BRUNEAU-NEAR HOT SPRINGS01-25-2021DISCHARGE (KAF)4912041
10BULO3BULLY CREEK-BULLY CREEK DAM01-25-2021INFLOW (KAF)159160
11BUDW1BUMPING-BUMPING LAKE DAM01-25-2021INFLOW (KAF)7564117
12CHDW1CHELAN-LAKE CHELAN DAM01-25-2021INFLOW (KAF)39242193
13ABOM8CLARK FORK-ABOVE MISSOULA01-25-2021DISCHARGE (KAF)66273590
14DLGM8CLARK FORK-AT DEER LODGE01-25-2021DISCHARGE (KAF)7570107
15SRGM8CLARK FORK-AT ST REGIS01-25-2021DISCHARGE (KAF)1517177885
16BELM8CLARK FORK-BELOW MISSOULA01-25-2021DISCHARGE (KAF)1148127090
17CABI1CLARK FORK-CABINET GORGE DAM01-25-2021INFLOW (KAF)4719570683
18NOXM8CLARK FORK-NOXON RAPIDS DAM01-25-2021INFLOW (KAF)4234544778
19DRMM8CLARK FORK-NR DRUMMOND01-25-2021DISCHARGE (KAF)158MM
20CLUW1CLE ELUM-CLE ELUM LAKE01-25-2021INFLOW (KAF)266223120
21ORFI1CLEARWATER-AT OROFINO01-25-2021DISCHARGE (KAF)2630279194
22SPDI1CLEARWATER-AT SPALDING01-25-2021DISCHARGE (KAF)47084717100
23COEI1COEUR D ALENE-COEUR D ALENE LAKE01-25-2021INFLOW (KAF)2425248398
24CIBW1COLUMBIA-AT INTL BOUNDARY01-25-2021DISCHARGE (KAF)19978MM
25BONO3COLUMBIA-BONNEVILLE DAM01-25-2021INFLOW (KAF)422574919486
26CHJW1COLUMBIA-CHIEF JOSEPH DAM01-25-2021INFLOW (KAF)237342537094
27GCDW1COLUMBIA-GRAND COULEE DAM01-25-2021INFLOW (KAF)2348622410105
28JDAO3COLUMBIA-JOHN DAY DAM01-25-2021INFLOW (KAF)406704508190
29MCDW1COLUMBIA-MCNARY DAM01-25-2021INFLOW (KAF)385534262990
30PRWW1COLUMBIA-PRIEST RAPIDS DAM01-25-2021INFLOW (KAF)2583925631101
31RRHW1COLUMBIA-ROCKY REACH DAM01-25-2021INFLOW (KAF)251382672494
32TDAO3COLUMBIA-THE DALLES DAM01-25-2021INFLOW (KAF)411394645489
33WANW1COLUMBIA-WANAPUM DAM01-25-2021INFLOW (KAF)2584125339102
34WELW1COLUMBIA-WELLS DAM01-25-2021INFLOW (KAF)247422634794
35DEDI1DEADWOOD-NEAR LOWMAN01-25-2021INFLOW (KAF)526087
36MODO3DESCHUTES-AT MOODY NR BIGGS01-25-2021DISCHARGE (KAF)1468160491
37ARDW1ENTIAT-NEAR ARDENVOIR01-25-2021DISCHARGE (KAF)7573103
38CHEI1FALL RIVER-NEAR CHESTER01-25-2021DISCHARGE (KAF)196195100
39CFMM8FLATHEAD-AT COLUMBIA FALLS01-25-2021DISCHARGE (KAF)2026214095
40KERM8FLATHEAD-SELI’Š KSANKA QLISPE’ DAM01-25-2021INFLOW (KAF)2317274684
41TRYO3GRANDE RONDE-TROY01-25-2021DISCHARGE (KAF)11221011111
42REXI1HENRYS FORK-AT REXBURG01-25-2021DISCHARGE (KAF)49057186
43ANTI1HENRYS FORK-AT ST. ANTHONY01-25-2021DISCHARGE (KAF)45149691
44IPDI1HENRYS FORK-ISLAND PARK DAM01-25-2021INFLOW (KAF)13815092
45HODO3HOOD-NEAR TUCKER BRIDGE01-25-2021DISCHARGE (KAF)315289109
46SERO3JOHN DAY-AT SERVICE CK01-25-2021DISCHARGE (KAF)66082180
47KADW1KACHESS-KACHESS DAM01-25-2021INFLOW (KAF)9881121
48LAUW1KETTLE-AT LAURIER01-25-2021DISCHARGE (KAF)74789184
49PITW1KLICKITAT-NEAR PITT01-25-2021DISCHARGE (KAF)47650994
50BFEI1KOOTENAI-AT BONNERS FERRY01-25-2021STAGE (FT)MMM
51LEOI1KOOTENAI-AT LEONIA01-25-2021DISCHARGE (KAF)30182402126
52LYDM8KOOTENAI-LIBBY DAM01-25-2021INFLOW (KAF)1708192189
53LWRI1LITTLE WOOD-LITTLE WOOD DAM01-25-2021INFLOW (KAF)364973
54BERO3MALHEUR-AGENCY VALLEY DAM01-25-2021INFLOW (KAF)335066
55WRMO3MALHEUR-WARM SPRINGS DAM01-25-2021INFLOW (KAF)657686
56MYKO3MCKAY CREEK-NEAR PILOT ROCK01-25-2021DISCHARGE (KAF)314174
57PATW1METHOW-NEAR PATEROS01-25-2021DISCHARGE (KAF)400344117
58WGCM8MF FLATHEAD-NEAR WEST GLACIER01-25-2021DISCHARGE (KAF)56161591
59CLFW1NACHES-NEAR CLIFFDEL01-25-2021DISCHARGE (KAF)254240106
60NACW1NACHES-NEAR NACHES01-25-2021DISCHARGE (KAF)322289112
61DWRI1NF CLEARWATER-DWORSHAK DAM01-25-2021INFLOW (KAF)20971945108
62FCFM8NF FLATHEAD-NEAR COLUMBIA FALLS01-25-2021DISCHARGE (KAF)57464389
63MONO3NF JOHN DAY-AT MONUMENT01-25-2021DISCHARGE (KAF)48555987
64CSDI1NF PAYETTE-CASCADE DAM01-25-2021INFLOW (KAF)282279101
65TONW1OKANOGAN-NEAR TONASKET01-25-2021DISCHARGE (KAF)62965896
66OWYO3OWYHEE-OWYHEE DAM01-25-2021INFLOW (KAF)21034561
67EMMI1PAYETTE-NEAR EMMETT01-25-2021DISCHARGE (KAF)67883481
68ALFW1PEND OREILLE-ALBENI FALLS DAM01-25-2021INFLOW (KAF)5903697085
69HOPI1PEND OREILLE-PEND OREILLE LAKE NR HOPE01-25-2021LAKE ELEVATION (FT)MMM
70PIHI1PORTNEUF-AT POCATELLO01-25-2021DISCHARGE (KAF)6110061
71PRTI1PRIEST-NEAR PRIEST RIVER01-25-2021DISCHARGE (KAF)554493112
72RCCM8ROCK CREEK-NEAR CLINTON01-25-2021DISCHARGE (KAF)113105108
73WHBI1SALMON-AT WHITEBIRD01-25-2021DISCHARGE (KAF)1845245475
74ARAI1SF BOISE-ANDERSON RANCH DAM01-25-2021INFLOW (KAF)26030685
75HHWM8SF FLATHEAD-HUNGRY HORSE DAM01-25-2021INFLOW (KAF)83388694
76PLDI1SF SNAKE-PALISADES DAM01-25-2021INFLOW (KAF)935120578
77SIFI1SNAKE-AB EAGLE ROCK NR IDAHO FALLS01-25-2021DISCHARGE (KAF)1375138799
78AFRI1SNAKE-AMERICAN FALLS RESERVOIR01-25-2021INFLOW (KAF)1652196884
79SNAI1SNAKE-AT BLACKFOOT01-25-2021DISCHARGE (KAF)1112124090
80MILI1SNAKE-AT MILNER01-25-2021DISCHARGE (KAF)487516
81WEII1SNAKE-AT WEISER01-25-2021DISCHARGE (KAF)3517503270
82SWAI1SNAKE-BELOW SWAN FALLS01-25-2021DISCHARGE (KAF)1766274064
83BRNI1SNAKE-BROWNLEE DAM01-25-2021INFLOW (KAF)3979540774
84IHDW1SNAKE-ICE HARBOR DAM01-25-2021INFLOW (KAF)116861473379
85JLKW4SNAKE-JACKSON LAKE AT DAM01-25-2021INFLOW (KAF)22326185
86LGSW1SNAKE-LITTLE GOOSE DAM01-25-2021INFLOW (KAF)114821463278
87LGDW1SNAKE-LOWER GRANITE DAM01-25-2021INFLOW (KAF)114821457879
88LMNW1SNAKE-LOWER MONUMENTAL DAM01-25-2021INFLOW (KAF)116861489378
89ALPW4SNAKE-NEAR ALPINE01-25-2021DISCHARGE (KAF)54673075
90ANAW1SNAKE-NEAR ANATONE01-25-2021DISCHARGE (KAF)6774986969
91BFTI1SNAKE-NEAR BLACKFOOT01-25-2021DISCHARGE (KAF)1083126586
92HEII1SNAKE-NEAR HEISE01-25-2021DISCHARGE (KAF)13161254105
93JKSW4SNAKE-NEAR JACKSON01-25-2021DISCHARGE (KAF)39553973
94SHYI1SNAKE-NEAR SHELLEY01-25-2021DISCHARGE (KAF)1302141692
95LLKW1SPOKANE-AT LONGLAKE01-25-2021INFLOW (KAF)2621294089
96SPOW1SPOKANE-AT SPOKANE01-25-2021DISCHARGE (KAF)2290MM
97SJMI1ST JOE-AT ST MARIES01-25-2021STAGE (FT)MMM
98SATI1ST MARIES-NEAR SANTA01-25-2021DISCHARGE (KAF)155140110
99STRM8ST. REGIS-NEAR ST. REGIS01-25-2021DISCHARGE (KAF)14417881
100TNAW1TEANAWAY-BELOW FORKS01-25-2021DISCHARGE (KAF)151119127
101TEAI1TETON-NEAR ST. ANTHONY01-25-2021DISCHARGE (KAF)14516389
102RILW1TIETON-RIMROCK LAKE NEAR RIMROCK01-25-2021INFLOW (KAF)11611799
103PDTO3UMATILLA-AT PENDLETON01-25-2021DISCHARGE (KAF)227198115
104GIBO3UMATILLA-NEAR GIBBON01-25-2021DISCHARGE (KAF)10283123
105UMAO3UMATILLA-NEAR UMATILLA01-25-2021DISCHARGE (KAF)210176119
106TCHW1WALLA WALLA-NEAR TOUCHET01-25-2021DISCHARGE (KAF)220219100
107WSRI1WEISER-NEAR WEISER01-25-2021DISCHARGE (KAF)400385104
108PESW1WENATCHEE-AT PESHASTIN01-25-2021DISCHARGE (KAF)711705101
109UNDW1WHITE SALMON-NEAR UNDERWOOD01-25-2021DISCHARGE (KAF)358357100
110RIDI1WILLOW CREEK-RIRIE DAM01-25-2021INFLOW (KAF)223759
111EASW1YAKIMA-AT EASTON01-25-2021DISCHARGE (KAF)9810098
112KIOW1YAKIMA-AT KIONA01-25-2021DISCHARGE (KAF)90098192
113UMTW1YAKIMA-AT UMTANUM01-25-2021DISCHARGE (KAF)554525106
114KEDW1YAKIMA-KEECHELUS LAKE01-25-2021INFLOW (KAF)10784127
115PARW1YAKIMA-NEAR PARKER01-25-2021DISCHARGE (KAF)62262899